Ellington Field, TX

10:20 AM CDT on June 25, 2017 (GMT -0500)
Ellington

Weather History for KEFD - January, 2012

Change the Weather History Date:

Sunday, January 1, 2012

  Actual Average Record
Temperature  
Mean Temperature 60 °F -  
Max Temperature 69 °F 63 °F 84 °F (2006)
Min Temperature 50 °F 44 °F 33 °F (2001)
Degree Days  
Heating Degree Days 5    
Growing Degree Days 10 (Base 50)    
Moisture  
Dew Point 42 °F    
Average Humidity 54    
Maximum Humidity 94    
Minimum Humidity 32    
Precipitation  
Precipitation 0.00 in - - ()
Sea Level Pressure  
Sea Level Pressure 30.37 in    
Wind  
Wind Speed 12 mph (NNW)    
Max Wind Speed 20 mph    
Max Gust Speed 25 mph    
Visibility 10 miles    
Events      
Averages and records for this station are not official NWS values.
T = Trace of Precipitation, MM = Missing Value Source: NWS Daily Summary

Daily Weather History Graph

Daily Weather History Graph

Search for Another Location

Airport or City:

Trip Planner

Search our weather history database for the weather conditions in past years. The results will help you decide how hot, cold, wet, or windy it might be!

Date:

Astronomy

Jan. 01, 2012 Rise Set
Actual Time 7:15 AM CST 5:32 PM CST
Civil Twilight 6:49 AM CST 5:58 PM CST
Nautical Twilight 6:19 AM CST 6:28 PM CST
Astronomical Twilight 5:50 AM CST 6:57 PM CST
Moon 12:06 PM CST (1/1) 12:29 AM CST (1/1)
Length of Visible Light 11h 09m
Length of Day
10h 17m
First Quarter, 55% of the Moon is Illuminated
Jan 1
First Quarter
Jan 9
Full
Jan 16
Last Quarter
Jan 23
New
Jan 30
First Quarter

Hourly Weather History & Observations

Time (CST) Temp. Dew Point Humidity Pressure Visibility Wind Dir Wind Speed Gust Speed Precip Events Conditions
12:50 AM 69.8 °F 66.2 °F 88% 30.13 in 7.0 mi SSW 11.5 mph - N/A   Overcast
1:50 AM 69.8 °F 68.0 °F 94% 30.16 in 8.0 mi SW 6.9 mph - N/A   Overcast
2:50 AM 69.8 °F 68.0 °F 94% 30.17 in 9.0 mi SSW 4.6 mph - N/A   Mostly Cloudy
3:50 AM 69.8 °F 68.0 °F 94% 30.20 in 10.0 mi WNW 8.1 mph - N/A   Mostly Cloudy
4:50 AM 69.8 °F 68.0 °F 94% 30.22 in 10.0 mi WNW 8.1 mph - N/A   Mostly Cloudy
5:50 AM 66.2 °F 62.6 °F 88% 30.26 in 10.0 mi NW 16.1 mph - N/A   Scattered Clouds
6:50 AM 59.0 °F 53.6 °F 82% 30.30 in 10.0 mi NNW 16.1 mph - N/A   Scattered Clouds
7:50 AM 57.2 °F 35.6 °F 44% 30.34 in 10.0 mi NNW 15.0 mph - N/A   Partly Cloudy
8:50 AM 57.2 °F 35.6 °F 44% 30.40 in 10.0 mi North 17.3 mph - N/A   Partly Cloudy
9:50 AM 60.8 °F 35.6 °F 39% 30.43 in 10.0 mi North 16.1 mph 25.3 mph N/A   Partly Cloudy
10:50 AM 60.8 °F 35.6 °F 39% 30.44 in 10.0 mi NNW 18.4 mph 25.3 mph N/A   Partly Cloudy
11:50 AM 62.6 °F 35.6 °F 37% 30.41 in 10.0 mi NNW 17.3 mph 25.3 mph N/A   Partly Cloudy
12:50 PM 64.4 °F 35.6 °F 34% 30.39 in 10.0 mi NNW 18.4 mph 25.3 mph N/A   Partly Cloudy
1:50 PM 64.4 °F 35.6 °F 34% 30.38 in 10.0 mi North 17.3 mph - N/A   Partly Cloudy
2:50 PM 66.2 °F 35.6 °F 32% 30.38 in 10.0 mi North 17.3 mph - N/A   Partly Cloudy
3:50 PM 64.4 °F 33.8 °F 32% 30.38 in 10.0 mi North 19.6 mph - N/A   Partly Cloudy
4:50 PM 62.6 °F 32.0 °F 32% 30.42 in 10.0 mi North 15.0 mph - N/A   Partly Cloudy
5:50 PM 59.0 °F 32.0 °F 36% 30.44 in 10.0 mi North 9.2 mph - N/A   Partly Cloudy
6:50 PM 57.2 °F 30.2 °F 36% 30.48 in 10.0 mi North 11.5 mph - N/A   Partly Cloudy
7:50 PM 57.2 °F 30.2 °F 36% 30.49 in 10.0 mi NNW 11.5 mph - N/A   Partly Cloudy
8:50 PM 53.6 °F 30.2 °F 41% 30.52 in 10.0 mi NNW 8.1 mph - N/A   Clear
9:50 PM 51.8 °F 30.2 °F 44% 30.52 in 10.0 mi NNW 9.2 mph - N/A   Clear
10:50 PM 51.8 °F 30.2 °F 44% 30.52 in 10.0 mi NNW 11.5 mph - N/A   Clear
11:50 PM 50.0 °F 30.2 °F 47% 30.52 in 10.0 mi North 15.0 mph - N/A   Clear